• Join FlightAware (Why Join?)
  • Login
  • US Flag 
09:55AM EDT


 

Airport Tracker/Info


-or-


 

Live Flight TrackerFlight Track Log ✈ KAP714 ✈ 07-May-2012 ✈ KOGS - KALB

Flight Track Log - Related Links

Times and Time Zones

All times are in EDT time to prevent confusion due to time zone crossing. See the KAP714 flight status page for this flight to view local times or setup timezone preferences in your user account.

Time Position Orientation Groundspeed Altitude Reporting Facility
EDT Latitude Longitude Course Direction KTS MPH feet Rate Location/Type
05:02PM 44.3197 -75.1214 147° Southeast 173 199 9,200  Level Boston Center
05:03PM 44.2831 -75.0878 152° Southeast 162 186 9,600 120 Climbing Boston Center
05:04PM 44.2419 -75.0569 149° Southeast 162 186 9,500 -60 Descending Boston Center
05:05PM 44.2011 -75.0233 147° Southeast 162 186 9,500  Level Boston Center
05:06PM 44.1603 -74.9867 147° Southeast 167 192 9,500  Level Boston Center
05:07PM 44.1194 -74.9503 148° Southeast 167 192 9,500  Level Boston Center
05:08PM 44.0806 -74.9169 148° Southeast 172 198 9,500  Level Boston Center
05:09PM 44.0417 -74.8836 151° Southeast 167 192 9,500  Level Boston Center
05:10PM 44.0025 -74.8531 148° Southeast 167 192 9,500  Level Boston Center
05:13PM 43.8881 -74.7533 148° Southeast 167 192 9,600  Climbing Boston Center
05:18PM 43.6953 -74.5853 148° Southeast 167 192 9,600 -60 Level Boston Center
05:23PM 43.4942 -74.4150 151° Southeast 167 192 9,400 -120 Descending Boston Center
05:24PM 43.4508 -74.3819 151° Southeast 167 192 9,000 -480 Descending Boston Center
05:25PM 43.4200 -74.3581 148° Southeast 177 204 8,700 -540 Descending Boston Center
05:26PM 43.3583 -74.3047 148° Southeast 185 213 8,000 -600 Descending Boston Center
05:27PM 43.3172 -74.2692 148° Southeast 185 213 7,400 -660 Descending Boston Center
05:29PM 43.2350 -74.1983 135° Southeast 180 207 6,200 -720 Descending Boston Center
05:30PM 43.1942 -74.1431 138° Southeast 185 213 5,400 -780 Descending Boston Center
05:31PM 43.1614 -74.1025 135° Southeast 185 213 4,700 -660 Descending Boston Center
05:32PM 43.1247 -74.0531 140° Southeast 180 207 4,100 -600 Descending Boston Center
05:33PM 43.0919 -74.0153 137° Southeast 175 201 3,500 -540 Descending Boston Center
05:34PM 43.0550 -73.9689 138° Southeast 169 194 3,100 -240 Descending Boston Center
05:35PM 43.0264 -73.9339 138° Southeast 163 188 3,100 60 Level Boston Center
05:36PM 42.9933 -73.8933 140° Southeast 153 176 3,300 -120 Climbing Boston Center
05:37PM 42.9606 -73.8558 112° Southeast 153 176 2,900 -300 Descending Boston Center
05:38PM 42.9444 -73.8014 106° East 153 176 2,700 -180 Descending Boston Center
05:39PM 42.9328 -73.7444 179° South 153 176 2,600 -120 Descending Boston Center
05:40PM 42.8994 -73.7439 232° Southwest 148 170 2,500 -120 Descending Boston Center
05:41PM 42.8758 -73.7858 208° Southwest 136 157 2,400 -240 Descending Boston Center
05:42PM 42.8422 -73.8106 179° South 129 148 2,100 -540 Descending Boston Center
05:43PM 42.8089 -73.8100 179° South 122 140 1,400 -660 Descending Boston Center
05:44PM 42.7778 -73.8092 170° South 117 135 800 -600 Descending Boston Center
05:52PM 42.2244 -73.6715 349° North  Level Estimated
05:53PM 42.7333 -73.8000 355° North  Level FlightAware Approximate
05:54PM 42.8037 -73.8088 175° South  Level Estimated
05:55PM 42.7333 -73.8000 175° South  Level FlightAware Approximate